[[{"header":{"parameterUnit":"m.s-1","parameterCategory":1,"la1":30.2991,"la2":30.254,"lo1":-89.0895,"lo2":-89.0444,"dy":0.0017,"dx":0.0017,"nx":28,"ny":28,"refTime":"2025-01-01T09:00:00:Z","depth":0,"parameterNumber":2,"parameterNumberName":"U-component_of_WINDS"},"data":[0,0,0,0,0,0,0,0,0,0,0,0,0,0,0,0,0,0,0,0,0,0,0,0,0,0,0,0,0,0,0,0,0,0,0,0,0,0,0,0,0,0,0,0,0,0,0,0,0,0,0,0,0,0,0,0,0,0,-0.2711,-0.2711,0,-0.2714,-0.2714,-0.2714,-0.2693,-0.2693,-0.2692,-0.2692,-0.2697,-0.2697,-0.2698,0,0,0,0,0,0,0,0,0,0,0,0,0,-0.269,-0.2691,-0.2711,-0.2711,-0.2711,-0.2714,-0.2714,-0.2714,-0.2694,-0.2693,-0.2692,-0.2691,-0.2696,-0.2697,-0.2698,0,0,0,0,0,0,0,0,0,0,0,0,0,-0.2697,-0.2691,-0.2711,-0.2701,-0.2701,-0.2714,-0.2714,-0.2714,-0.2694,-0.2693,-0.2692,-0.2691,-0.2696,-0.2697,-0.2698,-0.2721,0,0,-0.2701,-0.2701,0,0,0,0,0,0,0,0,-0.2697,-0.2698,-0.2703,-0.2702,-0.2701,-0.2702,-0.2708,-0.2716,-0.2694,-0.2696,-0.2692,-0.2691,-0.2699,-0.27,-0.2702,-0.2722,-0.2722,-0.2701,-0.2702,-0.2702,-0.2702,0,0,0,0,0,0,0,-0.2696,-0.2697,-0.2712,-0.2703,-0.2702,-0.2697,-0.2697,-0.271,-0.2703,-0.2696,-0.2695,-0.2695,-0.2699,-0.2701,-0.2702,-0.2722,-0.2701,-0.2702,-0.2703,-0.2703,-0.276,-0.2761,0,0,0,0,0,0,-0.2697,-0.2697,-0.2712,-0.2712,-0.2697,-0.2698,-0.2698,-0.2703,-0.2702,-0.2702,-0.2696,-0.2694,-0.27,-0.2701,-0.2702,-0.273,-0.2702,-0.2703,-0.2704,-0.2759,-0.276,-0.2761,0,0,0,0,0,0,-0.2696,-0.2698,-0.2712,-0.2704,-0.2706,-0.27,-0.2705,-0.2703,-0.2706,-0.2702,-0.2701,-0.27,-0.27,-0.2701,-0.2717,-0.273,-0.2704,-0.2704,-0.2758,-0.2759,-0.2761,-0.2785,0,0,0,0,0,0,-0.2696,-0.2698,-0.2707,-0.2705,-0.2706,-0.2726,-0.2706,-0.2704,-0.2708,-0.2705,-0.2706,-0.2705,-0.2699,-0.2715,-0.2718,-0.2731,-0.2705,-0.2757,-0.2759,-0.276,-0.2783,-0.2787,-0.2791,0,0,0,0,0,-0.2695,-0.2714,-0.2707,-0.2709,-0.2717,-0.2727,-0.2728,-0.272,-0.2709,-0.2718,-0.2715,-0.2705,-0.2728,-0.2717,-0.2719,-0.2733,-0.2756,-0.2758,-0.276,-0.2782,-0.2787,-0.2791,0,0,0,0,0,0,-0.272,-0.2714,-0.2706,-0.2725,-0.2726,-0.2723,-0.2734,-0.2725,-0.273,-0.2728,-0.2719,-0.2719,-0.2736,-0.2736,-0.2724,-0.2756,-0.274,-0.2743,-0.2755,-0.276,-0.2764,-0.2764,-0.2706,0,0,0,0,0,-0.2727,-0.2735,-0.273,-0.2747,-0.2748,-0.2741,-0.2745,-0.2738,-0.274,-0.2741,-0.2739,-0.2741,-0.2749,-0.2754,-0.2761,-0.2782,-0.2783,-0.2793,-0.2797,-0.28,-0.2803,-0.2814,-0.2819,-0.2768,-0.2768,-0.2768,0,0,-0.2743,-0.274,-0.2746,-0.2751,-0.2752,-0.2761,-0.2742,-0.2752,-0.2759,-0.2742,-0.2757,-0.2756,-0.2757,-0.2776,-0.2784,-0.2776,-0.2817,-0.2802,-0.2805,-0.2806,-0.2817,-0.2822,-0.2826,-0.2769,-0.2769,-0.2769,0,0,-0.2776,-0.2775,-0.2789,-0.2789,-0.2789,-0.2784,-0.2788,-0.2786,-0.2784,-0.2798,-0.2786,-0.2794,-0.2807,-0.2809,-0.2811,-0.2844,-0.2835,-0.2846,-0.2866,-0.2878,-0.2882,-0.2885,-0.2898,-0.2902,-0.2849,-0.2849,-0.2849,0,-0.2796,-0.2809,-0.2798,-0.2809,-0.2812,-0.2795,-0.281,-0.2811,-0.2814,-0.2816,-0.2807,-0.2823,-0.2823,-0.2842,-0.2849,-0.2852,-0.2856,-0.2847,-0.2882,-0.2885,-0.2889,-0.29,-0.2905,-0.285,-0.285,-0.285,-0.285,0,-0.2833,-0.2842,-0.2853,-0.2856,-0.2859,-0.2872,-0.2864,-0.2869,-0.2861,-0.2858,-0.2872,-0.2871,-0.2877,-0.2881,-0.2874,-0.2899,-0.2894,-0.2883,-0.2868,-0.2895,-0.2906,-0.291,-0.2852,-0.2852,-0.2851,-0.2851,0,0,-0.2885,-0.2879,-0.2883,-0.2884,-0.2882,-0.2889,-0.2901,-0.2906,-0.2911,-0.2913,-0.2923,-0.2933,-0.2923,-0.2926,-0.2919,-0.2929,-0.2956,-0.2917,-0.2917,-0.2925,-0.2983,-0.2992,-0.2998,-0.2949,-0.295,-0.295,-0.2983,0,-0.2918,-0.2938,-0.2927,-0.2949,-0.2957,-0.2941,-0.2951,-0.2951,-0.2947,-0.2954,-0.295,-0.2958,-0.2943,-0.2945,-0.2954,-0.2951,-0.2967,-0.2948,-0.2959,-0.296,-0.2961,-0.3003,-0.3013,-0.3045,-0.2987,-0.2988,-0.2989,0,-0.296,-0.2963,-0.2985,-0.2981,-0.2984,-0.2993,-0.2997,-0.3003,-0.3003,-0.2999,-0.3001,-0.2992,-0.3004,-0.2986,-0.3003,-0.299,-0.2993,-0.2992,-0.2993,-0.2996,-0.2977,-0.3008,-0.3054,-0.306,-0.2995,-0.2995,-0.2994,0,-0.2997,-0.3006,-0.302,-0.302,-0.3016,-0.3023,-0.3021,-0.302,-0.3024,-0.3026,-0.3029,-0.3033,-0.3036,-0.304,-0.3032,-0.302,-0.305,-0.3032,-0.3048,-0.3048,-0.3057,-0.3057,-0.3106,-0.3056,-0.3056,-0.3056,-0.3056,0,-0.3036,-0.3051,-0.3036,-0.3045,-0.306,-0.3048,-0.3064,-0.306,-0.3059,-0.3067,-0.3053,-0.3062,-0.305,-0.3057,-0.305,-0.3065,-0.3066,-0.3064,-0.3063,-0.3067,-0.3067,-0.307,-0.3069,-0.3057,-0.3057,-0.3057,-0.3057,0,-0.3081,-0.3071,-0.3086,-0.3079,-0.3078,-0.309,-0.3085,-0.3093,-0.3087,-0.3098,-0.31,-0.3091,-0.3099,-0.309,-0.3097,-0.3093,-0.3113,-0.3108,-0.3113,-0.3112,-0.3129,-0.3128,-0.3184,-0.3191,-0.3136,-0.3136,-0.3137,0,-0.3108,-0.3118,-0.3112,-0.3116,-0.3115,-0.3122,-0.3125,-0.3113,-0.3117,-0.3116,-0.3125,-0.3131,-0.3135,-0.3148,-0.3143,-0.3148,-0.3143,-0.3162,-0.3144,-0.3147,-0.3145,-0.3145,-0.3146,-0.3167,-0.3167,-0.3168,-0.3168,0,-0.3156,-0.3151,-0.3155,-0.3158,-0.3162,-0.3164,-0.3164,-0.3169,-0.3156,-0.3161,-0.3168,-0.3171,-0.3177,-0.3184,-0.3187,-0.3186,-0.3176,-0.3173,-0.3178,-0.3183,-0.3186,-0.3186,-0.3125,-0.3173,-0.3172,-0.3172,-0.3172,-0.3172,-0.3194,-0.3202,-0.3199,-0.3205,-0.3203,-0.3204,-0.3211,-0.3206,-0.3211,-0.3215,-0.3207,-0.3216,-0.3215,-0.3218,-0.3218,-0.3225,-0.3217,-0.3223,-0.3225,-0.3227,-0.323,-0.3183,-0.3225,-0.3225,-0.3225,-0.3225,-0.3225,0,-0.3243,-0.324,-0.3245,-0.3246,-0.325,-0.3237,-0.3237,-0.3242,-0.325,-0.3249,-0.3253,-0.326,-0.3266,-0.3261,-0.3265,-0.3272,-0.3267,-0.3274,-0.3274,-0.3274,-0.3236,-0.3233,-0.3278,-0.3278,-0.3278,-0.3277,-0.3277,-0.3277,-0.3269,-0.3283,-0.3277,-0.329,-0.3286,-0.3294,-0.3295,-0.3296,-0.3295,-0.3304,-0.3308,-0.3304,-0.3301,-0.3305,-0.331,-0.3308,-0.3311,-0.332,-0.3317,-0.3282,-0.3277,-0.3272,-0.3269,-0.332,-0.332,-0.3354,-0.3355,-0.3355]},{"header":{"parameterUnit":"m.s-1","parameterCategory":1,"la1":30.2991,"la2":30.254,"lo1":-89.0895,"lo2":-89.0444,"dy":0.0017,"dx":0.0017,"nx":28,"ny":28,"refTime":"2025-01-01T09:00:00:Z","depth":0,"parameterNumber":3,"parameterNumberName":"V-component_of_WINDS"},"data":[0,0,0,0,0,0,0,0,0,0,0,0,0,0,0,0,0,0,0,0,0,0,0,0,0,0,0,0,0,0,0,0,0,0,0,0,0,0,0,0,0,0,0,0,0,0,0,0,0,0,0,0,0,0,0,0,0,0,-6.8289,-6.8291,0,-6.8455,-6.8457,-6.8458,-6.8361,-6.8356,-6.8351,-6.8347,-6.8518,-6.8526,-6.8535,0,0,0,0,0,0,0,0,0,0,0,0,0,-6.7889,-6.7896,-6.8289,-6.8291,-6.8293,-6.8454,-6.8457,-6.8459,-6.8361,-6.8356,-6.835,-6.8345,-6.8515,-6.8525,-6.8536,0,0,0,0,0,0,0,0,0,0,0,0,0,-6.8059,-6.7899,-6.8288,-6.8264,-6.8263,-6.8454,-6.8457,-6.846,-6.8363,-6.8356,-6.8348,-6.8342,-6.8511,-6.8524,-6.8537,-6.8762,0,0,-6.8578,-6.8584,0,0,0,0,0,0,0,0,-6.805,-6.8074,-6.8265,-6.8266,-6.8265,-6.838,-6.8378,-6.8561,-6.8364,-6.8325,-6.8347,-6.8338,-6.8477,-6.8493,-6.854,-6.877,-6.8777,-6.858,-6.8588,-6.8593,-6.8597,0,0,0,0,0,0,0,-6.8038,-6.8066,-6.8354,-6.8268,-6.8268,-6.8245,-6.8261,-6.8412,-6.8439,-6.8328,-6.8321,-6.8342,-6.8476,-6.8527,-6.8543,-6.878,-6.8579,-6.8591,-6.8599,-6.8605,-6.9204,-6.9212,0,0,0,0,0,0,-6.8028,-6.8057,-6.8349,-6.8359,-6.8138,-6.8258,-6.8276,-6.835,-6.8437,-6.8443,-6.8348,-6.8337,-6.8508,-6.8528,-6.8549,-6.8819,-6.8593,-6.8606,-6.8614,-6.9196,-6.9206,-6.9214,0,0,0,0,0,0,-6.802,-6.8055,-6.8342,-6.8207,-6.8241,-6.8272,-6.8356,-6.8357,-6.8408,-6.8452,-6.8456,-6.8395,-6.8503,-6.853,-6.871,-6.8824,-6.8612,-6.8624,-6.9187,-6.9199,-6.921,-6.9361,0,0,0,0,0,0,-6.8009,-6.8052,-6.8138,-6.8209,-6.8249,-6.8501,-6.8363,-6.8366,-6.8431,-6.8419,-6.8498,-6.8504,-6.8499,-6.8691,-6.8723,-6.8838,-6.8635,-6.9177,-6.9192,-6.9206,-6.9346,-6.9376,-6.9402,0,0,0,0,0,-6.7995,-6.8174,-6.8143,-6.8179,-6.8356,-6.8508,-6.8531,-6.8521,-6.8441,-6.8528,-6.8556,-6.8502,-6.8805,-6.871,-6.8746,-6.8867,-6.917,-6.9188,-6.9205,-6.9333,-6.937,-6.9402,0,0,0,0,0,0,-6.8115,-6.8182,-6.8149,-6.8356,-6.8427,-6.8491,-6.86,-6.8561,-6.8656,-6.864,-6.8625,-6.8643,-6.8832,-6.8866,-6.8759,-6.9089,-6.8975,-6.9001,-6.906,-6.9096,-6.9123,-6.9112,-6.8646,0,0,0,0,0,-6.8166,-6.8283,-6.8335,-6.8513,-6.855,-6.8569,-6.8635,-6.8622,-6.8694,-6.8724,-6.8765,-6.8838,-6.895,-6.9024,-6.913,-6.935,-6.9366,-6.945,-6.9479,-6.9502,-6.9525,-6.9645,-6.9684,-6.9273,-6.9272,-6.9272,0,0,-6.8272,-6.8323,-6.8398,-6.8539,-6.8592,-6.8714,-6.8595,-6.8729,-6.882,-6.8744,-6.8918,-6.8951,-6.9031,-6.9233,-6.9323,-6.9267,-6.9642,-6.9524,-6.9542,-6.9553,-6.9668,-6.9707,-6.9741,-6.9285,-6.9282,-6.928,0,0,-6.8528,-6.8578,-6.8732,-6.8788,-6.887,-6.8882,-6.8919,-6.8989,-6.9008,-6.9182,-6.9128,-6.9235,-6.9428,-6.9488,-6.9544,-6.9823,-6.9778,-6.9858,-7.0006,-7.0124,-7.0157,-7.0185,-7.0287,-7.0323,-6.988,-6.9881,-6.9881,0,-6.8649,-6.8831,-6.8816,-6.8955,-6.902,-6.8956,-6.9113,-6.9168,-6.9281,-6.9327,-6.9262,-6.9504,-6.9553,-6.9769,-6.9837,-6.9883,-6.9927,-6.985,-7.0153,-7.0182,-7.0208,-7.0305,-7.0343,-6.989,-6.9889,-6.9888,-6.9887,0,-6.8978,-6.9105,-6.9219,-6.933,-6.9407,-6.9554,-6.9562,-6.9642,-6.9622,-6.964,-6.9819,-6.9875,-6.9992,-7.0042,-7.0023,-7.0256,-7.0219,-7.0154,-7.0039,-7.0257,-7.0348,-7.0385,-6.9904,-6.99,-6.9897,-6.9895,0,0,-6.9316,-6.9416,-6.9459,-6.9509,-6.9595,-6.9693,-6.9837,-6.9951,-7.0021,-7.01,-7.0222,-7.0387,-7.0328,-7.0391,-7.0379,-7.0482,-7.0702,-7.0405,-7.0407,-7.046,-7.0964,-7.1014,-7.1057,-7.0671,-7.0678,-7.0684,-7.0958,0,-6.9579,-6.9831,-6.9822,-7.0058,-7.0176,-7.0118,-7.0244,-7.0311,-7.0332,-7.0435,-7.0458,-7.0576,-7.0488,-7.0526,-7.0626,-7.0655,-7.0804,-7.0634,-7.0786,-7.0792,-7.0771,-7.1104,-7.1157,-7.1413,-7.0993,-7.0999,-7.1003,0,-6.992,-7.0011,-7.0259,-7.0329,-7.0378,-7.0492,-7.0596,-7.0695,-7.077,-7.0778,-7.0849,-7.0821,-7.0968,-7.0848,-7.1051,-7.0936,-7.0998,-7.1021,-7.1031,-7.1047,-7.0913,-7.1131,-7.1494,-7.1534,-7.1059,-7.1054,-7.105,0,-7.0144,-7.0329,-7.0502,-7.0546,-7.0631,-7.0713,-7.0752,-7.0819,-7.0889,-7.098,-7.1025,-7.1132,-7.1191,-7.1275,-7.1276,-7.1188,-7.1483,-7.1362,-7.1495,-7.1496,-7.1562,-7.1558,-7.1943,-7.1598,-7.1597,-7.1596,-7.1596,0,-7.044,-7.0595,-7.0604,-7.0711,-7.0882,-7.0871,-7.1041,-7.1072,-7.1133,-7.1245,-7.12,-7.1306,-7.13,-7.1408,-7.141,-7.1579,-7.1606,-7.1617,-7.1617,-7.1623,-7.1622,-7.1665,-7.1648,-7.1607,-7.1604,-7.1602,-7.1601,0,-7.0721,-7.0733,-7.0918,-7.0983,-7.1003,-7.1127,-7.1183,-7.1285,-7.1301,-7.1444,-7.1477,-7.1504,-7.1629,-7.1637,-7.1781,-7.1782,-7.1989,-7.1967,-7.1964,-7.1961,-7.2095,-7.2083,-7.2522,-7.258,-7.2195,-7.2199,-7.2202,0,-7.0911,-7.1028,-7.1106,-7.1178,-7.1222,-7.1339,-7.1409,-7.1402,-7.1478,-7.1572,-7.1663,-7.1783,-7.1879,-7.2081,-7.2114,-7.2224,-7.2206,-7.2352,-7.2223,-7.2226,-7.2212,-7.2206,-7.2218,-7.2379,-7.2383,-7.2386,-7.2389,0,-7.1246,-7.1247,-7.135,-7.1457,-7.1543,-7.1626,-7.1704,-7.1766,-7.1768,-7.1855,-7.1982,-7.2057,-7.2204,-7.2325,-7.2433,-7.2473,-7.2434,-7.2429,-7.2466,-7.2476,-7.247,-7.2478,-7.2036,-7.242,-7.2417,-7.2415,-7.2413,-7.2412,-7.1489,-7.1592,-7.1663,-7.178,-7.1838,-7.1912,-7.2011,-7.2041,-7.2146,-7.2266,-7.2255,-7.2396,-7.2468,-7.2609,-7.2658,-7.2769,-7.272,-7.2773,-7.2787,-7.2801,-7.2816,-7.245,-7.2788,-7.2787,-7.2787,-7.2786,-7.2785,0,-7.1825,-7.1868,-7.1976,-7.2086,-7.2179,-7.2131,-7.2215,-7.2296,-7.2422,-7.2492,-7.2588,-7.2735,-7.2851,-7.2893,-7.3007,-7.3088,-7.3073,-7.3119,-7.3114,-7.3124,-7.2852,-7.281,-7.3129,-7.3129,-7.3129,-7.3129,-7.3129,-7.3129,-7.201,-7.2182,-7.2191,-7.2391,-7.2433,-7.2571,-7.2624,-7.2692,-7.2748,-7.2915,-7.3012,-7.3038,-7.3097,-7.3215,-7.3321,-7.333,-7.3375,-7.343,-7.3432,-7.3178,-7.3143,-7.311,-7.3071,-7.3439,-7.344,-7.3695,-7.3697,-7.3699]}]]